[Date Prev][Date Next][Thread Prev][Thread Next] - [Date Index][Thread Index][Author Index]

2 Line ISS Keps 4-8



ISS
1 25544U 98067A   02098.18263889  .00057569  00000-0  69781-3 0  2757
2 25544  51.6392  44.6861 0002983   7.9842 193.0761 15.60067142193113


----
Via the sarex mailing list at AMSAT.ORG courtesy of AMSAT-NA.
To unsubscribe, send "unsubscribe sarex" to Majordomo@amsat.org



AMSAT Top AMSAT Home